TimeMST,TemperatureF,Dew PointF,Humidity,Sea Level PressureIn,VisibilityMPH,Wind Direction,Wind SpeedMPH,Gust SpeedMPH,PrecipitationIn,Events,Conditions,WindDirDegrees,DateUTC
12:08 AM,41.0,32.0,70,29.78,10.0,SW,15.0,24.2,N/A,,Overcast,220,2013-11-03 06:08:00
12:56 AM,39.9,32.0,73,29.64,10.0,South,8.1,-,N/A,,Overcast,170,2013-11-03 06:56:00
1:06 AM,39.2,32.0,75,29.76,10.0,SSE,11.5,-,N/A,,Overcast,160,2013-11-03 07:06:00
1:56 AM,38.8,30.0,71,29.63,10.0,SSW,13.8,-,N/A,,Overcast,200,2013-11-03 07:56:00
1:56 AM,36.0,27.1,70,29.67,10.0,SSW,9.2,-,N/A,,Overcast,210,2013-11-03 08:56:00
2:34 AM,35.6,26.6,70,29.79,9.0,South,12.7,-,N/A,,Mostly Cloudy,180,2013-11-03 09:34:00
2:56 AM,34.0,27.1,76,29.66,10.0,South,10.4,-,N/A,,Mostly Cloudy,170,2013-11-03 09:56:00
3:56 AM,34.0,23.0,64,29.66,10.0,South,15.0,-,N/A,,Mostly Cloudy,180,2013-11-03 10:56:00
4:44 AM,30.2,24.8,80,29.76,4.0,South,17.3,25.3,0.00,,Scattered Clouds,170,2013-11-03 11:44:00
4:56 AM,30.0,25.2,82,29.68,9.0,South,16.1,24.2,0.00,,Partly Cloudy,170,2013-11-03 11:56:00
5:56 AM,31.1,22.1,69,29.72,10.0,SSW,4.6,-,0.00,,Mostly Cloudy,210,2013-11-03 12:56:00
6:56 AM,30.0,18.1,61,29.71,10.0,South,12.7,-,N/A,,Mostly Cloudy,190,2013-11-03 13:56:00
7:56 AM,28.0,16.2,61,29.73,10.0,SSW,20.7,-,N/A,,Partly Cloudy,200,2013-11-03 14:56:00
8:56 AM,32.0,16.2,52,29.73,10.0,SW,19.6,-,N/A,,Overcast,220,2013-11-03 15:56:00
9:56 AM,32.0,16.2,52,29.73,10.0,SSW,20.7,24.2,N/A,,Mostly Cloudy,210,2013-11-03 16:56:00
10:56 AM,31.1,18.1,59,29.75,10.0,SSW,16.1,23.0,N/A,,Mostly Cloudy,200,2013-11-03 17:56:00
11:56 AM,31.1,19.0,61,29.77,10.0,SSW,13.8,-,N/A,,Overcast,210,2013-11-03 18:56:00
12:56 PM,30.0,22.1,72,29.77,10.0,SSE,15.0,-,0.00,,Mostly Cloudy,160,2013-11-03 19:56:00
1:46 PM,30.2,17.6,60,29.82,4.0,SW,11.5,-,0.00,Snow,Light Snow,220,2013-11-03 20:46:00
1:56 PM,32.0,17.1,54,29.78,10.0,SSW,15.0,-,0.00,,Scattered Clouds,210,2013-11-03 20:56:00
2:49 PM,26.6,21.2,80,29.85,1.2,WNW,23.0,26.5,0.00,Snow,Light Snow,290,2013-11-03 21:49:00
2:56 PM,25.2,21.0,84,29.85,0.5,WNW,17.3,-,0.00,Fog-Snow,Snow,290,2013-11-03 21:56:00
2:58 PM,24.8,21.2,86,29.86,0.2,WNW,17.3,-,0.00,Fog-Snow,Snow,290,2013-11-03 21:58:00
3:06 PM,24.8,21.2,86,29.86,0.5,West,17.3,24.2,0.00,Fog-Snow,Light Snow,260,2013-11-03 22:06:00
3:13 PM,24.8,17.6,74,29.85,1.0,SW,9.2,24.2,0.00,Snow,Light Snow,220,2013-11-03 22:13:00
3:15 PM,24.8,19.4,80,29.85,1.8,SW,11.5,-,0.00,Snow,Light Snow,230,2013-11-03 22:15:00
3:17 PM,26.6,19.4,74,29.85,4.0,SW,11.5,-,0.00,Snow,Light Snow,230,2013-11-03 22:17:00
3:30 PM,28.4,19.4,69,29.85,10.0,SSW,13.8,-,0.00,Snow,Light Snow,210,2013-11-03 22:30:00
3:56 PM,28.0,21.0,75,29.85,10.0,South,11.5,-,0.00,,Clear,190,2013-11-03 22:56:00
4:56 PM,26.1,17.1,69,29.88,10.0,South,11.5,-,N/A,,Clear,190,2013-11-03 23:56:00
5:56 PM,25.2,17.1,71,29.91,10.0,WSW,6.9,-,N/A,,Overcast,240,2013-11-04 00:56:00
6:12 PM,24.8,21.2,86,29.91,4.0,NNW,8.1,-,0.00,Snow,Light Snow,340,2013-11-04 01:12:00
6:15 PM,24.8,21.2,86,29.92,1.5,NNW,6.9,-,0.00,Snow,Light Snow,340,2013-11-04 01:15:00
6:18 PM,24.8,21.2,86,29.92,1.0,NNW,6.9,-,0.00,Snow,Light Snow,340,2013-11-04 01:18:00
6:29 PM,24.8,21.2,86,29.92,1.5,North,5.8,-,0.00,Snow,Light Snow,360,2013-11-04 01:29:00
6:40 PM,24.8,21.2,86,29.92,1.0,North,4.6,-,0.00,Snow,Light Snow,350,2013-11-04 01:40:00
6:56 PM,24.1,21.0,88,29.94,3.0,Calm,Calm,-,0.00,Snow,Light Snow,0,2013-11-04 01:56:00
7:07 PM,24.8,21.2,86,29.93,10.0,Calm,Calm,-,0.00,Snow,Light Snow,0,2013-11-04 02:07:00
7:17 PM,23.0,21.2,93,29.93,2.5,Calm,Calm,-,0.00,Snow,Light Snow,0,2013-11-04 02:17:00
7:27 PM,23.0,19.4,86,29.93,3.0,SE,5.8,-,0.00,Snow,Light Snow,140,2013-11-04 02:27:00
7:37 PM,23.0,19.4,86,29.92,10.0,SE,6.9,-,0.00,Snow,Light Snow,140,2013-11-04 02:37:00
7:56 PM,23.0,20.1,89,29.96,10.0,SSE,8.1,-,0.00,,Overcast,160,2013-11-04 02:56:00
8:56 PM,23.0,19.0,85,29.94,10.0,SSE,8.1,-,N/A,,Overcast,160,2013-11-04 03:56:00
9:56 PM,21.0,18.1,89,29.97,10.0,SE,8.1,-,0.00,,Clear,140,2013-11-04 04:56:00
10:56 PM,21.0,17.1,85,29.98,10.0,SSE,10.4,-,N/A,,Clear,160,2013-11-04 05:56:00